TIME,DELAY(SENSOR),PRES,T(CTD),SAL,OXYGEN,RAWTEMP,T(OPTODE),TCPHASE,FLUOR,BETA(BETA700),BETA(BETA412),BETA(BETA440),CDOM,C(CSC),ED(ED412.40),ED(ED444.00),ED(ED489.70),ED(ED554.30),LU(LU411.80),LU(LU443.40),LU(LU489.60),LU(LU554.10),COMP,TILTX,TILTX(TILTY),CHECK
1334612146,5808,497.8500061035156000,7.2177000045776370,34.1464004516601560,97.4488372802734400,580.9027709960938000,7.1994647979736330,46.6651802062988300,52,114,90,82,80,15221,2147750793,2147420882,2148000731,2147872064,2147625920,2147086866,2148249773,2147206043,276,4,13,1075
1334612297,5810,486.6799926757812500,7.3417000770568850,34.1412010192871100,102.5244979858398400,577.0338745117188000,7.3236899375915530,46.0695381164550800,50,112,93,81,79,15224,2147747776,2147421248,2148000822,2147873673,2147623314,2147087241,2148247506,2147203318,3162,4,13,26210
1334612480,5809,474.4200134277344000,7.6385998725891110,34.1343994140625000,109.6762008666992200,567.9337768554688000,7.6153578758239750,45.1918296813964840,50,113,90,81,78,15223,2147744996,2147421686,2147999058,2147870464,2147626816,2147091465,2148243017,2147207341,1691,4,13,39052
1334612619,5809,463.1600036621094000,7.8111000061035160,34.1366004943847660,114.2722015380859400,562.2767944335938000,7.7963089942932130,44.6420783996582000,50,112,94,81,79,15227,2147747364,2147420178,2148001179,2147873782,2147624868,2147087232,2148245156,2147206217,714,4,13,52203
1334612746,5804,452.5100097656250000,7.9577999114990230,34.1374015808105500,117.9972991943359400,557.3931274414062000,7.9523029327392580,44.1971817016601560,51,109,90,82,79,15228,2147745481,2147420260,2147999140,2147871104,2147624841,2147096630,2148234093,2147204013,738,4,13,57559
1334612869,5810,440.4200134277344000,8.1684999465942380,34.1402015686035160,121.8393020629882800,550.6356811523438000,8.1678133010864260,43.7193717956543000,50,111,92,80,79,15228,2147748406,2147420918,2148001874,2147871140,2147622436,2147093915,2148240685,2147205723,404,4,13,36047
1334612960,5811,430.1199951171875000,8.5233001708984380,34.1363983154296900,131.0948028564453000,540.0546264648438000,8.5045146942138670,42.6858711242675800,51,111,93,81,78,15224,2147746349,2147420507,2148000969,2147872667,2147620150,2147097801,2148236480,2147206244,539,4,13,24542
1334613063,5809,418.0799865722656000,8.7028999328613280,34.1334991455078100,137.9685058593750000,534.3355712890625000,8.6861248016357420,41.9805908203125000,50,114,91,81,78,15224,2147742573,2147423588,2148001627,2147871844,2147618934,2147094427,2148232256,2147205760,584,4,12,14797
1334613180,5808,405.5400085449219000,8.8152999877929690,34.1165008544921900,156.5243072509765600,530.7335205078125000,8.8003807067871100,40.3863410949707000,50,112,91,82,77,15226,2147741184,2147420086,2147998976,2147872704,2147619940,2147100544,2148233700,2147209069,470,4,13,25360
1334613283,5808,395.1799926757812500,8.8924999237060550,34.1186981201171900,160.0211944580078000,528.4113769531250000,8.8739814758300780,40.0738716125488300,50,113,90,82,77,15225,2147742326,2147420836,2147997412,2147870930,2147619008,2147099931,2148234523,2147206966,449,4,13,1560
1334613398,5809,383.3399963378906000,9.1766996383667000,34.1231994628906250,163.1367950439453000,519.5977172851562000,9.1529674530029300,39.6843299865722660,50,114,92,81,75,15224,2147742729,2147423844,2147999204,2147873408,2147616118,2147100726,2148232018,2147206317,530,4,13,33841
1334613530,5807,373.6000061035156000,9.4954004287719730,34.1333999633789060,168.0610961914062500,509.4204101562500000,9.4743938446044920,39.1410408020019500,49,110,91,82,75,15227,2147742034,2147424320,2148000064,2147873746,2147617188,2147105481,2148230665,2147209216,2680,4,14,56262
1334613828,5808,361.6799926757812500,9.7842998504638670,34.1423988342285160,175.6842041015625000,499.9480895996094000,9.7728872299194340,38.4291801452636700,50,112,91,82,75,15226,2147742144,2147422171,2147995611,2147872557,2147612324,2147103232,2148226221,2147207945,668,4,14,32980
1334614003,5807,351.0400085449219000,10.1305999755859380,34.1511001586914060,180.8282012939453000,489.0939025878906000,10.1141595840454100,37.8870315551757800,50,111,94,82,73,15225,2147737005,2147421796,2148002212,2147874322,2147613878,2147103433,2148227657,2147209014,174,4,14,13541
1334614161,5808,338.7399902343750000,10.3571996688842770,34.1501007080078100,188.2015075683593800,480.7355957031250000,10.3764200210571290,37.2518806457519500,49,109,87,81,73,15225,2147737051,2147425188,2148005056,2147871250,2147610011,2147110948,2148230089,2147208667,454,4,14,60420
1334614276,5805,328.1000061035156000,10.6965999603271480,34.1594009399414060,197.1519927978515600,470.8611145019531000,10.6856698989868160,36.5124092102050800,49,111,89,80,73,15227,2147735213,2147423003,2148008548,2147869705,2147610989,2147112256,2148225581,2147208128,597,4,13,56617
1334614393,5808,316.9400024414062500,10.9948997497558600,34.1716995239257800,200.8222961425781200,461.0736083984375000,10.9916000366210940,36.1232109069824200,49,112,92,81,72,15228,2147735954,2147426002,2148008713,2147873572,2147611346,2147114706,2148226779,2147209014,1021,3,14,8531
1334614508,5808,306.1300048828125000,11.1690998077392580,34.1768989562988300,205.5706024169922000,455.7362060546875000,11.1581897735595700,35.7487182617187500,50,108,88,82,72,15230,2147737298,2147429595,2148018349,2147870217,2147604589,2147124525,2148227035,2147209682,1190,4,14,4565
1334614623,5805,295.3999938964844000,11.7147998809814450,34.2033996582031250,205.7015991210937500,437.5122070312500000,11.7257699966430660,35.4461593627929700,49,110,89,81,71,15228,2147732443,2147429504,2148027136,2147872841,2147605339,2147125604,2148232667,2147208658,1712,3,14,15224
1334614752,5808,285.0299987792969000,12.3229999542236330,34.2361984252929700,206.6620025634765600,418.3117980957031000,12.3218402862548830,35.0828781127929700,49,111,88,82,72,15225,2147732425,2147433545,2148041389,2147873627,2147604333,2147132653,2148235291,2147211840,1719,4,13,17623
1334614903,5811,273.7399902343750000,13.1105003356933600,34.2846984863281250,202.8524017333984400,393.4466857910156000,13.0911302566528320,34.9191894531250000,49,112,91,80,71,15224,2147728950,2147441773,2148059227,2147871104,2147596032,2147137554,2148238857,2147211364,368,3,14,49297
1334615048,5808,261.9400024414062500,13.7587003707885740,34.3446006774902340,207.0811004638672000,371.8760070800781000,13.7563800811767580,34.3361701965332000,49,111,89,82,70,15224,2147727798,2147450816,2148090450,2147870208,2147595236,2147155236,2148248585,2147217142,2371,3,15,42463
1334615163,5808,251.3200073242187500,14.7208995819091800,34.4304008483886700,209.6947937011718800,341.1957092285156000,14.6996898651123050,33.7222785949707000,48,111,93,82,69,15219,2147728457,2147466880,2148131913,2147870720,2147589750,2147165366,2148265280,2147215433,2495,3,14,10500
1334615304,5811,240.6000061035156200,15.5172004699707030,34.4886016845703100,207.2864074707031200,312.0729980468750000,15.5925903320312500,33.4288101196289060,49,112,91,81,70,15220,2147728329,2147490413,2148180928,2147873307,2147587922,2147181348,2148285248,2147218157,2916,3,13,51024
1334615479,5809,229.6399993896484400,16.4787998199462900,34.5816001892089840,206.4515991210937500,283.2023010253906000,16.4759902954101560,33.0569496154785160,50,106,91,80,68,15223,2147731044,2147526729,2148260864,2147870262,2147585142,2147207131,2148317568,2147223067,3097,3,15,7792
1334615660,5807,215.6699981689453000,16.9178009033203120,34.6509017944335940,218.3618011474609400,267.9313964843750000,16.9427509307861330,32.1804199218750000,50,105,89,81,67,15222,2147740123,2147596297,2148411428,2147869997,2147586276,2147262610,2148395328,2147228708,421,2,14,32205
1334615775,5810,205.4199981689453000,17.4178009033203120,34.6829986572265600,213.3863067626953000,252.7557067871093800,17.4063796997070300,32.2356185913085940,53,108,89,81,67,15213,2147762395,2147675355,2148563337,2147869659,2147593298,2147304676,2148467529,2147231744,53,3,13,59218
1334618504,5811,99.1100006103515600,23.4384994506835940,35.1174011230468750,241.4499053955078000,54.3518409729003900,23.4882698059082030,28.2305507659912100,95,127,94,85,59,15084,2170379090,2177350985,2181372608,2148562185,2159154395,2162023021,2162989485,2148605769,2583,1,17,23418
1334618571,5809,96.5899963378906200,23.7544002532959000,35.2000007629394500,241.5027008056640600,47.9624786376953100,23.6860008239746100,28.1486206054687500,81,126,91,86,60,15095,2173378889,2180912941,2184740434,2148689746,2161332150,2164562514,2165096402,2148798637,2538,2,16,49952
1334618626,5807,94.4300003051757800,23.8866996765136720,35.2405014038085940,241.7734985351562500,41.8874511718750000,23.8741798400878900,28.0611190795898440,79,126,95,84,60,15110,2175136923,2182667940,2186199049,2148780160,2162878857,2166307446,2166430619,2148916909,3259,1,17,40059
1334618681,5805,92.1399993896484400,23.9500999450683600,35.2523002624511700,242.1356048583984400,39.8509597778320300,23.9372997283935550,28.0199203491210940,76,124,93,84,61,15106,2178532644,2186699446,2190161526,2148934235,2165356361,2169235648,2168808941,2149133723,3374,1,16,56934
1334618759,5809,88.3300018310546900,23.9143009185791000,35.2308998107910160,242.9519042968750000,40.7752304077148440,23.9086494445800780,27.9951095581054700,74,124,98,85,59,15095,2185034029,2194060214,2197692013,2149359277,2170301540,2174879634,2173241856,2149560118,3040,2,16,37873
1334618814,5808,84.9499969482421900,23.8013000488281250,35.1800994873046900,243.6168975830078000,44.7782783508300800,23.7846107482910160,28.0153293609619140,75,127,93,85,58,15092,2189638875,2199046272,2201710875,2149627986,2174361792,2179381028,2176574116,2149873691,3177,1,16,39611
1334618869,5809,81.5599975585937500,23.6588001251220700,35.1044006347656250,243.5523986816406200,46.8241081237793000,23.7212505340576170,28.0435390472412100,74,129,93,84,59,15085,2196972425,2207310921,2209637394,2150220059,2179906642,2185624365,2181485897,2150364608,3064,2,16,48229
1334618924,5808,78.3000030517578100,23.9181003570556640,35.1711997985839840,243.0281066894531200,40.7943191528320300,23.9080600738525400,27.9919395446777340,72,124,95,85,59,15091,2203589696,2214642404,2216489060,2150799936,2185260891,2191294738,2185560859,2150815680,2372,2,16,1015
1334618979,5804,75.2200012207031200,23.8885993957519530,35.1287002563476560,243.2980957031250000,41.5006484985351560,23.8861694335937500,27.9887504577636720,69,124,93,86,58,15082,2212407670,2224143588,2225323273,2151583542,2192242925,2198813613,2191104786,2151432347,1870,1,16,23331
1334619034,5809,72.2600021362304700,23.7264003753662100,35.0438995361328100,244.4828033447265600,46.0958404541015600,23.7437992095947270,27.9934501647949220,68,127,95,86,60,15082,2219736274,2231731017,2232115885,2152251172,2198780032,2205591341,2195930249,2151936749,1684,2,17,4453
1334619091,5808,69.4100036621093800,24.0200004577636720,35.1268997192382800,243.3453979492187500,38.5062599182128900,23.9789905548095700,27.9496097564697270,66,126,94,85,57,15081,2227523867,2239820470,2239402651,2153025216,2206384685,2213483693,2201665728,2152585517,1729,2,16,17453
1334619146,5812,66.9800033569336000,24.1453990936279300,35.1710014343261700,242.6074066162109400,33.6158218383789060,24.1306896209716800,27.9218101501464840,65,125,94,85,60,15080,2235252708,2247431104,2246286573,2154193417,2213813101,2220960987,2206847597,2153228562,2250,2,16,53790
1334619201,5807,64.5599975585937500,24.1627998352050780,35.1333999633789060,242.8793945312500000,32.6800384521484400,24.1597309112548830,27.8981399536132800,64,123,94,86,56,15083,2241947593,2254167113,2252591250,2155203200,2220079058,2226951177,2210795840,2153702902,2302,1,16,52481
1334619256,5812,62.4799995422363300,24.1333999633789060,35.1164016723632800,243.3433074951172000,33.2617683410644500,24.1416797637939450,27.8849601745605470,63,124,97,87,56,15078,2252236452,2264885897,2262813046,2156542665,2229251730,2236336301,2217167680,2154481508,1675,1,17,2071
1334619311,5806,60.3699989318847660,24.1389999389648440,35.1050987243652340,243.7413940429687500,33.2217407226562500,24.1429195404052730,27.8668098449707030,61,123,94,84,57,15080,2259508992,2271736137,2268962249,2157813056,2237831396,2244785508,2222990400,2155294235,1563,1,16,6614
1334619366,5808,58.2200012207031250,24.1403007507324220,35.0962982177734400,244.2180023193359400,33.2146606445312500,24.1431407928466800,27.8459491729736330,61,121,94,86,57,15082,2269940845,2282733540,2279970057,2159577517,2249381869,2256319881,2231132946,2156271241,1386,1,17,42047
1334619423,5806,56.0299987792968750,24.1469993591308600,35.0890007019043000,244.4405059814453000,32.9669189453125000,24.1508293151855470,27.8331108093261720,60,123,92,84,59,15081,2278053037,2290533165,2287306304,2161032036,2258138276,2264271378,2236051172,2156990290,1384,1,17,11031
1334619478,5809,54.0499992370605500,24.2031993865966800,35.0684013366699200,244.4405975341797000,31.3231391906738280,24.2018508911132800,27.8127307891845700,58,122,93,87,58,15077,2274961334,2285248731,2280968320,2161645933,2259178020,2264033773,2235075840,2157011611,1280,1,17,58567
1334619545,5807,52.1699981689453100,24.2000007629394530,35.0303001403808600,244.5630950927734400,31.0967407226562500,24.2088794708251950,27.8045806884765620,57,120,93,86,60,15084,2278086400,2287907328,2283915346,2163223881,2265892489,2269493513,2238246710,2157577124,866,2,16,5802
1334619624,5806,50.5600013732910160,24.1940994262695300,34.9934997558593750,244.4907073974609400,31.0299701690673830,24.2109508514404300,27.8069801330566400,56,122,95,85,55,15078,2285384100,2295483017,2291030756,2164884644,2277458998,2280064969,2245136182,2158405897,1036,1,17,3598
1334619691,5806,49.5800018310546900,24.2091999053955080,34.9864997863769500,244.4004058837890600,30.7203693389892580,24.2205600738525400,27.8071804046630860,56,122,95,85,58,15073,2279010185,2289091602,2284520813,2164002697,2272934656,2274040027,2239249947,2157866422,1605,1,16,24621
1334619805,5808,46.8699989318847660,24.2306995391845700,34.9734992980957000,244.5509033203125000,30.4267005920410160,24.2296791076660160,27.7969093322753900,56,122,94,85,58,15071,2268133970,2275517833,2270104932,2164400804,2272037504,2269365906,2233445028,2157450779,1944,1,16,18777
1334619860,5810,44.9700012207031250,24.2481994628906250,34.9678001403808600,244.3359985351562500,29.6742401123046880,24.2530403137207030,27.7969398498535160,56,123,94,85,57,15066,2286238985,2295965531,2291597586,2168946788,2289936576,2286041481,2244860644,2159268608,2111,1,16,26919
1334619915,5807,42.9799995422363300,24.2919998168945300,34.9553985595703100,244.1114959716797000,28.3478298187255860,24.2942295074462900,27.7905101776123050,55,121,96,86,58,15071,2292438089,2301179894,2295948544,2171864256,2306653750,2301324553,2255030884,2160741165,2805,2,17,63156
1334619970,5806,40.8600006103515600,24.3535995483398440,34.9373016357421900,243.9647979736328000,26.3286495208740230,24.3569602966308600,27.7721691131591800,54,122,93,85,59,15077,2291723968,2298934665,2294294080,2173943168,2313136182,2306800182,2258373449,2161212041,418,2,16,56730
1334620025,5805,38.9000015258789060,24.3971996307373050,34.9319992065429700,243.7221069335937500,24.7419109344482420,24.4062595367431640,27.7631607055664060,53,122,91,85,60,15080,2308292992,2318037101,2314837833,2180565275,2325260178,2317338742,2265524352,2162928667,3553,1,16,31397
1334620103,5808,35.1899986267089840,24.4209003448486330,34.9225997924804700,243.3171997070312500,24.0921306610107420,24.4264507293701170,27.7729206085205080,52,120,94,85,55,15085,2310484050,2319061056,2315272420,2185336594,2343725824,2331908516,2273615588,2164818139,3056,3,16,24595
1334620158,5810,31.7399997711181640,24.4260005950927730,34.9163017272949200,243.4707946777343800,23.8024005889892580,24.4354591369628900,27.7627296447753900,52,118,92,86,60,15086,2330324608,2338706724,2335753353,2197551533,2380047305,2366254829,2297371346,2169830208,262,2,16,46547
1334620213,5813,28.3999996185302730,24.4431991577148440,34.9142990112304700,243.3632965087890600,23.1753292083740230,24.4549503326416000,27.7596397399902340,52,118,93,83,52,15092,2373735506,2387283309,2388019867,2219695122,2419873554,2402927433,2322490075,2176274587,865,2,16,40009
1334620268,5810,25.3400001525878900,24.4437999725341800,34.9149017333984400,243.2996978759765600,23.1893997192382800,24.4545097351074220,27.7624397277832030,51,117,94,83,58,15100,2321244873,2327281929,2325155382,2208073947,2371842989,2351794852,2284157458,2170926116,1187,3,16,54214
